Jacksonville NAS, FL

4:32 PM EDT on April 25, 2018 (GMT -0400)
Jacksonville Naval Air Station

Weather History for KNIP - September, 2012

Change the Weather History Date:

Thursday, September 27, 2012

  Actual Average Record
Temperature  
Mean Temperature 82 °F -  
Max Temperature 89 °F 83 °F 93 °F (2002)
Min Temperature 75 °F 70 °F 66 °F (2008)
Cooling Degree Days 16    
Growing Degree Days 32 (Base 50)    
Moisture  
Dew Point 73 °F    
Average Humidity 76    
Maximum Humidity 94    
Minimum Humidity 57    
Precipitation  
Precipitation 0.14 in - - ()
Sea Level Pressure  
Sea Level Pressure 30.11 in    
Wind  
Wind Speed 5 mph (NE)    
Max Wind Speed 16 mph    
Max Gust Speed 22 mph    
Visibility 10 miles    
Events Rain    
Averages and records for this station are not official NWS values.
T = Trace of Precipitation, MM = Missing Value Source: NWS Daily Summary

Daily Weather History Graph

Daily Weather History Graph

Search for Another Location

Airport or City:

Astronomy

Sep. 27, 2012 Rise Set
Actual Time 7:18 AM EDT 7:16 PM EDT
Civil Twilight 6:54 AM EDT 7:40 PM EDT
Nautical Twilight 6:26 AM EDT 8:08 PM EDT
Astronomical Twilight 5:58 AM EDT 8:36 PM EDT
Moon 5:41 PM EDT (9/27) 4:53 AM EDT (9/27)
Length of Visible Light 12h 46m
Length of Day
11h 58m
Waxing Gibbous, 94% of the Moon is Illuminated
Sep 27
Waxing Gibbous
Sep 29
Full
Oct 8
Last Quarter
Oct 15
New
Oct 21
First Quarter

Hourly Weather History & Observations

Time (EDT) Temp. Heat Index Dew Point Humidity Pressure Visibility Wind Dir Wind Speed Gust Speed Precip Events Conditions
12:53 AM 79.0 °F - 72.0 °F 79% 30.12 in 10.0 mi NE 3.5 mph - N/A   Scattered Clouds
1:53 AM 78.1 °F - 73.9 °F 87% 30.11 in 10.0 mi ENE 3.5 mph - N/A   Scattered Clouds
2:53 AM 79.0 °F - 73.9 °F 84% 30.11 in 10.0 mi ENE 3.5 mph - N/A   Scattered Clouds
3:53 AM 79.0 °F - 75.0 °F 88% 30.09 in 10.0 mi Calm Calm - N/A   Scattered Clouds
4:53 AM 79.0 °F - 75.0 °F 88% 30.09 in 10.0 mi NNE 4.6 mph - N/A   Scattered Clouds
5:53 AM 78.1 °F - 75.0 °F 90% 30.10 in 9.0 mi Calm Calm - N/A   Scattered Clouds
6:53 AM 75.9 °F - 73.9 °F 94% 30.11 in 9.0 mi WNW 3.5 mph - N/A   Scattered Clouds
7:53 AM 75.9 °F - 73.9 °F 94% 30.12 in 7.0 mi NNW 4.6 mph - N/A   Mostly Cloudy
8:53 AM 78.1 °F - 75.0 °F 90% 30.14 in 8.0 mi North 6.9 mph - N/A   Mostly Cloudy
9:53 AM 82.0 °F 88.6 °F 75.0 °F 79% 30.15 in 10.0 mi NE 8.1 mph - N/A   Mostly Cloudy
10:53 AM 84.0 °F 91.2 °F 73.9 °F 72% 30.15 in 10.0 mi NNE 5.8 mph - N/A   Scattered Clouds
11:08 AM 84.2 °F 90.9 °F 73.4 °F 70% 30.16 in 10.0 mi NNE 4.6 mph - 0.00 in Rain Light Rain
11:53 AM 86.0 °F 93.0 °F 73.0 °F 65% 30.14 in 10.0 mi ENE 8.1 mph - 0.00 in   Scattered Clouds
12:53 PM 87.1 °F 92.0 °F 70.0 °F 57% 30.13 in 10.0 mi ENE 10.4 mph - N/A   Mostly Cloudy
1:53 PM 88.0 °F 93.8 °F 71.1 °F 57% 30.10 in 10.0 mi NE 10.4 mph - N/A   Scattered Clouds
2:53 PM 87.1 °F 92.8 °F 71.1 °F 59% 30.08 in 10.0 mi East 11.5 mph - N/A   Mostly Cloudy
3:53 PM 87.1 °F 93.6 °F 72.0 °F 61% 30.07 in 10.0 mi ENE 15.0 mph - N/A   Mostly Cloudy
4:53 PM 86.0 °F 92.2 °F 72.0 °F 63% 30.07 in 10.0 mi ENE 12.7 mph 20.7 mph N/A   Mostly Cloudy
5:15 PM 82.4 °F 89.5 °F 75.2 °F 79% 30.08 in 6.0 mi NE 16.1 mph 21.9 mph 0.06 in Rain Light Rain
5:53 PM 81.0 °F 86.7 °F 75.0 °F 82% 30.07 in 10.0 mi ENE 11.5 mph - 0.14 in   Mostly Cloudy
6:53 PM 81.0 °F 85.2 °F 72.0 °F 74% 30.08 in 10.0 mi ENE 9.2 mph - N/A   Mostly Cloudy
7:53 PM 80.1 °F 83.2 °F 70.0 °F 71% 30.08 in 10.0 mi East 4.6 mph - N/A   Mostly Cloudy
8:53 PM 80.1 °F 83.2 °F 70.0 °F 71% 30.10 in 10.0 mi Calm Calm - N/A   Mostly Cloudy
9:53 PM 79.0 °F - 71.1 °F 77% 30.11 in 10.0 mi NE 3.5 mph - N/A   Scattered Clouds
10:53 PM 79.0 °F - 71.1 °F 77% 30.10 in 10.0 mi NE 3.5 mph - N/A   Scattered Clouds
11:53 PM 79.0 °F - 71.1 °F 77% 30.10 in 10.0 mi NNE 5.8 mph - N/A   Scattered Clouds